GW2273 Weather Reports


time (UTC)temp
C
wind
direction
speed
KPH
gust
KPH
rain 1hr
cm
rain 24hr
cm
rain mn
cm
humidity
%
barometer
mb
20260507044524 13 39 4.8 11.3 0.00 0.00 0.00 56 1019.4
20260507044024 13 40 4.8 11.3 0.00 0.00 0.00 56 1019.5
20260507043503 13 43 4.8 8.0 0.00 0.00 0.00 56 1019.4
20260507043003 13 46 4.8 9.7 0.00 0.00 0.00 56 1019.5
20260507042503 13 47 4.8 9.7 0.00 0.00 0.00 55 1019.5
20260507042003 13 50 4.8 9.7 0.00 0.00 0.00 55 1019.4
20260507041503 13 51 4.8 11.3 0.00 0.00 0.00 55 1019.5
20260507041003 13 47 6.4 14.5 0.00 0.00 0.00 55 1019.4
20260507040503 13 57 4.8 14.5 0.00 0.00 0.00 55 1019.2
20260507040003 13 70 4.8 9.7 0.00 0.00 0.00 54 1019.2
20260507035503 14 61 4.8 9.7 0.00 0.00 0.00 54 1019.2
20260507035024 14 58 4.8 9.7 0.00 0.00 0.00 54 1019.0
20260507034503 14 62 4.8 9.7 0.00 0.00 0.00 53 1018.9
20260507034003 14 59 4.8 12.9 0.00 0.00 0.00 53 1018.6
20260507033503 14 56 6.4 14.5 0.00 0.00 0.00 53 1018.6
20260507033003 14 55 6.4 14.5 0.00 0.00 0.00 52 1018.3
20260507032503 15 63 6.4 12.9 0.00 0.00 0.00 52 1018.3
20260507032003 15 67 4.8 12.9 0.00 0.00 0.00 52 1018.1
20260507031503 15 64 4.8 11.3 0.00 0.00 0.00 51 1018.0
20260507031003 15 67 4.8 11.3 0.00 0.00 0.00 51 1017.9
20260507030503 15 64 6.4 11.3 0.00 0.00 0.00 51 1017.8
20260507030003 15 62 6.4 11.3 0.00 0.00 0.00 51 1017.8
20260507025503 15 66 6.4 17.7 0.00 0.00 0.00 50 1017.5
20260507025024 15 65 6.4 17.7 0.00 0.00 0.00 50 1017.4
20260507024503 15 63 8.0 16.1 0.00 0.00 0.00 50 1017.2
20260507024003 15 64 6.4 14.5 0.00 0.00 0.00 50 1016.8
20260507023503 15 70 6.4 14.5 0.00 0.00 0.00 49 1016.8
20260507023003 16 69 8.0 16.1 0.00 0.00 0.00 49 1016.7
20260507022524 16 67 8.0 16.1 0.00 0.00 0.00 49 1016.7
20260507022003 16 61 8.0 17.7 0.00 0.00 0.00 48 1016.7
20260507021503 16 64 8.0 17.7 0.00 0.00 0.00 48 1016.6
20260507021003 16 65 8.0 16.1 0.00 0.00 0.00 48 1016.6
20260507020503 16 65 8.0 16.1 0.00 0.00 0.00 48 1016.5
20260507020003 16 77 8.0 16.1 0.00 0.00 0.00 47 1016.4
20260507015503 16 80 6.4 14.5 0.00 0.00 0.00 47 1016.3
20260507015024 16 76 6.4 14.5 0.00 0.00 0.00 47 1016.3
20260507014503 16 75 6.4 14.5 0.00 0.00 0.00 46 1016.2
20260507014003 17 74 6.4 14.5 0.00 0.00 0.00 46 1016.1
20260507013503 17 72 6.4 20.9 0.00 0.00 0.00 45 1016.1
20260507013003 17 75 8.0 20.9 0.00 0.00 0.00 45 1015.9
20260507012503 17 81 9.7 29.0 0.00 0.00 0.00 45 1015.9
20260507012003 17 81 9.7 29.0 0.00 0.00 0.00 44 1015.8
20260507011503 17 85 9.7 22.5 0.00 0.00 0.00 44 1015.7
20260507011003 17 90 9.7 20.9 0.00 0.00 0.00 44 1015.8
20260507010503 17 87 8.0 20.9 0.00 0.00 0.00 44 1015.7
20260507010003 18 80 9.7 20.9 0.00 0.00 0.00 43 1015.7
20260507005503 18 77 9.7 19.3 0.00 0.00 0.00 43 1015.6
20260507005003 18 67 11.3 22.5 0.00 0.00 0.00 43 1015.6
20260507004503 18 56 11.3 22.5 0.00 0.00 0.00 42 1015.6
20260507004003 18 50 12.9 20.9 0.00 0.00 0.00 42 1015.4
20260507003503 18 53 14.5 20.9 0.00 0.00 0.00 42 1015.3
20260507003003 18 59 12.9 25.7 0.00 0.00 0.00 42 1015.3
20260507002524 18 53 12.9 25.7 0.00 0.00 0.00 41 1015.2
20260507002024 18 59 11.3 24.1 0.00 0.00 0.00 41 1015.2
20260507001503 18 82 11.3 19.3 0.00 0.00 0.00 41 1015.2
20260507001003 18 67 11.3 20.9 0.00 0.00 0.00 41 1015.2
20260507000503 19 64 11.3 20.9 0.00 0.00 0.00 41 1015.2
20260507000003 19 80 11.3 22.5 0.00 0.00 0.00 41 1015.2
20260506235503 19 76 11.3 22.5 0.00 0.00 0.00 41 1015.2
20260506235003 19 66 11.3 22.5 0.00 0.00 0.00 42 1015.1
20260506234524 20 55 9.7 20.9 0.00 0.00 0.00 41 1015.0
20260506234003 20 60 9.7 20.9 0.00 0.00 0.00 41 1014.9
20260506233503 20 63 9.7 19.3 0.00 0.00 0.00 41 1015.0
20260506233003 20 58 9.7 22.5 0.00 0.00 0.00 41 1015.1
20260506232524 20 55 9.7 22.5 0.00 0.00 0.00 41 1015.0
20260506232003 20 46 11.3 24.1 0.00 0.00 0.00 41 1014.9
20260506231524 20 42 9.7 24.1 0.00 0.00 0.00 41 1014.9
20260506231003 20 39 9.7 24.1 0.00 0.00 0.00 42 1014.7
20260506230524 20 44 11.3 24.1 0.00 0.00 0.00 41 1014.9
20260506230003 20 53 8.0 17.7 0.00 0.00 0.00 42 1014.8
20260506225503 20 45 6.4 20.9 0.00 0.00 0.00 42 1015.0
20260506225024 20 27 9.7 20.9 0.00 0.00 0.00 42 1014.9
20260506224503 19 13 11.3 20.9 0.00 0.00 0.00 43 1015.0
20260506224003 20 20 9.7 20.9 0.00 0.00 0.00 41 1015.1
20260506223503 20 20 8.0 19.3 0.00 0.00 0.00 42 1015.0
20260506223003 20 4 8.0 19.3 0.00 0.00 0.00 42 1015.0
20260506222503 20 4 8.0 19.3 0.00 0.00 0.00 42 1014.8
20260506222003 20 359 8.0 16.1 0.00 0.00 0.00 42 1014.9
20260506221504 20 359 8.0 16.1 0.00 0.00 0.00 42 1014.8
20260506221003 20 358 8.0 17.7 0.00 0.00 0.00 43 1014.9
20260506220524 19 3 8.0 17.7 0.00 0.00 0.00 44 1014.8
20260506220003 19 10 9.7 19.3 0.00 0.00 0.00 44 1014.9
20260506215503 19 29 9.7 19.3 0.00 0.00 0.00 44 1014.9
20260506215003 18 56 9.7 20.9 0.00 0.00 0.00 44 1014.8
20260506214503 19 41 11.3 25.7 0.00 0.00 0.00 44 1015.0
20260506214003 19 28 9.7 25.7 0.00 0.00 0.00 44 1014.9
20260506213503 19 28 9.7 19.3 0.00 0.00 0.00 44 1014.8
20260506213003 19 28 9.7 17.7 0.00 0.00 0.00 45 1014.9
20260506212503 19 38 9.7 24.1 0.00 0.00 0.00 44 1015.0
20260506212024 18 47 9.7 24.1 0.00 0.00 0.00 45 1014.9
20260506211503 19 40 9.7 22.5 0.00 0.00 0.00 44 1015.0
20260506211003 19 47 8.0 22.5 0.00 0.00 0.00 44 1015.0
20260506210503 18 54 8.0 22.5 0.00 0.00 0.00 45 1015.1
20260506210024 18 34 8.0 19.3 0.00 0.00 0.00 45 1015.2
20260506205503 19 31 8.0 19.3 0.00 0.00 0.00 45 1015.3
20260506205003 18 44 8.0 22.5 0.00 0.00 0.00 46 1015.3
20260506204503 18 29 9.7 22.5 0.00 0.00 0.00 46 1015.4
20260506204003 18 3 9.7 24.1 0.00 0.00 0.00 46 1015.6
20260506203503 18 2 9.7 24.1 0.00 0.00 0.00 46 1015.5
20260506203003 18 19 8.0 22.5 0.00 0.00 0.00 45 1015.6
20260506202503 18 57 6.4 17.7 0.00 0.00 0.00 46 1015.6
20260506202003 18 54 8.0 24.1 0.00 0.00 0.00 47 1015.6
20260506201503 18 50 8.0 24.1 0.00 0.00 0.00 46 1015.7
20260506201003 18 49 8.0 19.3 0.00 0.00 0.00 47 1015.8
20260506200503 18 52 9.7 22.5 0.00 0.00 0.00 46 1015.8
20260506200003 18 43 8.0 22.5 0.00 0.00 0.00 47 1015.6
20260506195503 18 29 8.0 20.9 0.00 0.00 0.00 47 1015.9
20260506195003 18 35 8.0 16.1 0.00 0.00 0.00 48 1015.8
20260506194503 18 11 9.7 22.5 0.00 0.00 0.00 48 1015.8
20260506194003 17 352 11.3 24.1 0.00 0.00 0.00 48 1015.9
20260506193503 18 356 8.0 24.1 0.00 0.00 0.00 48 1015.9
20260506193024 18 27 8.0 17.7 0.00 0.00 0.00 49 1015.9
20260506192503 17 57 8.0 17.7 0.00 0.00 0.00 49 1016.1
20260506192003 17 70 9.7 25.7 0.00 0.00 0.00 50 1016.1
20260506191503 17 70 11.3 25.7 0.00 0.00 0.00 50 1016.2
20260506191003 17 68 11.3 20.9 0.00 0.00 0.00 50 1016.2
20260506190524 17 51 9.7 20.9 0.00 0.00 0.00 50 1016.2
20260506190024 17 17 8.0 19.3 0.00 0.00 0.00 51 1016.2
20260506185503 17 15 8.0 19.3 0.00 0.00 0.00 50 1016.4
20260506185003 17 41 8.0 20.9 0.00 0.00 0.00 50 1016.4
20260506184503 16 67 8.0 20.9 0.00 0.00 0.00 52 1016.4
20260506184003 16 86 8.0 16.1 0.00 0.00 0.00 52 1016.4
20260506183503 16 47 8.0 19.3 0.00 0.00 0.00 53 1016.4
20260506183003 16 18 9.7 19.3 0.00 0.00 0.00 53 1016.6
20260506182503 16 41 8.0 19.3 0.00 0.00 0.00 53 1016.6
20260506182003 16 39 6.4 16.1 0.00 0.00 0.00 53 1016.7
20260506181524 16 27 8.0 22.5 0.00 0.00 0.00 53 1016.9
20260506181024 16 29 8.0 22.5 0.00 0.00 0.00 53 1016.8
20260506180503 16 43 9.7 19.3 0.00 0.00 0.00 53 1016.8
20260506180003 16 77 11.3 25.7 0.00 0.00 0.00 54 1016.8
20260506175503 15 90 8.0 25.7 0.00 0.00 0.00 56 1016.9
20260506175003 15 85 8.0 24.1 0.00 0.00 0.00 55 1017.0
20260506174503 15 73 9.7 24.1 0.00 0.00 0.00 56 1017.2
20260506174003 15 60 9.7 20.9 0.00 0.00 0.00 55 1017.0
20260506173503 15 72 8.0 17.7 0.00 0.00 0.00 56 1017.0
20260506173003 14 64 9.7 20.9 0.00 0.00 0.00 59 1017.1
20260506172503 14 55 9.7 20.9 0.00 0.00 0.00 58 1017.2
20260506172003 14 76 8.0 17.7 0.00 0.00 0.00 58 1017.0
20260506171503 13 98 11.3 20.9 0.00 0.00 0.00 60 1017.2
20260506171003 13 101 12.9 20.9 0.00 0.00 0.00 60 1017.3
20260506170503 13 99 11.3 20.9 0.00 0.00 0.00 59 1017.3
20260506170003 13 100 11.3 22.5 0.00 0.00 0.00 60 1017.4
20260506165503 13 99 12.9 29.0 0.00 0.00 0.00 61 1017.5
20260506165003 13 87 12.9 29.0 0.00 0.00 0.00 60 1017.4
20260506164503 13 65 9.7 24.1 0.00 0.00 0.00 61 1017.5
20260506164003 12 78 9.7 24.1 0.00 0.00 0.00 62 1017.4
20260506163503 12 99 11.3 24.1 0.00 0.00 0.00 62 1017.4
20260506163003 12 100 12.9 29.0 0.00 0.00 0.00 62 1017.4
20260506162524 12 97 12.9 29.0 0.00 0.00 0.00 62 1017.2
20260506162003 12 98 12.9 22.5 0.00 0.00 0.00 63 1017.3
20260506161503 12 96 12.9 27.4 0.00 0.00 0.00 65 1017.4
20260506161003 12 89 12.9 27.4 0.00 0.00 0.00 63 1017.5
20260506160503 12 79 9.7 19.3 0.00 0.00 0.00 65 1017.5
20260506160003 12 72 8.0 19.3 0.00 0.00 0.00 64 1017.6
20260506155503 12 86 9.7 24.1 0.00 0.00 0.00 65 1017.8
20260506155003 11 99 11.3 27.4 0.00 0.00 0.00 66 1017.8
20260506154503 11 89 12.9 27.4 0.00 0.00 0.00 65 1017.9
20260506154003 11 89 12.9 25.7 0.00 0.00 0.00 65 1017.8
20260506153503 11 73 11.3 22.5 0.00 0.00 0.00 66 1017.7
20260506153003 11 71 11.3 24.1 0.00 0.00 0.00 67 1017.8
20260506152524 11 93 12.9 24.1 0.00 0.00 0.00 67 1017.9
20260506152003 11 88 11.3 24.1 0.00 0.00 0.00 67 1017.9
20260506151503 11 71 9.7 22.5 0.00 0.00 0.00 68 1017.9
20260506151024 11 76 11.3 22.5 0.00 0.00 0.00 68 1017.8
20260506150503 10 91 11.3 20.9 0.00 0.00 0.00 69 1017.9
20260506150003 10 79 11.3 20.9 0.00 0.00 0.00 69 1017.9
20260506145524 10 63 11.3 20.9 0.00 0.00 0.00 69 1017.7
20260506145024 10 63 11.3 22.5 0.00 0.00 0.00 68 1017.6
20260506144503 10 69 11.3 22.5 0.00 0.00 0.00 68 1017.5
20260506144024 11 65 9.7 19.3 0.00 0.00 0.00 68 1017.4
20260506143524 10 57 9.7 19.3 0.00 0.00 0.00 69 1017.4
20260506143003 10 51 11.3 22.5 0.00 0.00 0.00 69 1017.3
20260506142524 10 52 12.9 30.6 0.00 0.00 0.00 69 1016.8
20260506142003 10 53 12.9 30.6 0.00 0.00 0.00 69 1016.7
20260506141524 10 48 12.9 25.7 0.00 0.00 0.00 69 1016.7
20260506141003 10 45 12.9 25.7 0.00 0.00 0.00 69 1016.7
20260506140503 10 39 9.7 24.1 0.00 0.00 0.00 69 1016.7
20260506140003 10 38 11.3 25.7 0.00 0.00 0.00 70 1016.7
20260506135503 10 42 11.3 25.7 0.00 0.00 0.00 70 1016.6
20260506135024 10 43 11.3 25.7 0.00 0.00 0.00 70 1016.7
20260506134503 10 49 11.3 25.7 0.00 0.00 0.00 71 1016.7
20260506134003 10 50 12.9 29.0 0.00 0.00 0.00 71 1016.7
20260506133503 9 49 12.9 29.0 0.00 0.00 0.00 71 1016.4
20260506133024 9 45 14.5 29.0 0.00 0.00 0.00 72 1016.6
20260506132503 9 41 12.9 32.2 0.00 0.00 0.00 72 1016.6
20260506132003 9 34 14.5 32.2 0.00 0.00 0.00 71 1016.5
20260506131503 9 27 12.9 29.0 0.00 0.00 0.00 71 1016.3
20260506131003 9 24 11.3 27.4 0.00 0.00 0.00 71 1016.3
20260506130524 9 27 9.7 24.1 0.00 0.00 0.00 71 1016.4
20260506130003 9 27 11.3 24.1 0.00 0.00 0.00 71 1016.3
20260506125503 9 28 12.9 27.4 0.00 0.00 0.00 71 1016.3
20260506125003 9 29 12.9 27.4 0.00 0.00 0.00 70 1016.4
20260506124503 9 28 11.3 27.4 0.00 0.00 0.00 70 1016.4
20260506124024 9 37 11.3 27.4 0.00 0.00 0.00 70 1016.2
20260506123503 9 38 11.3 32.2 0.00 0.00 0.00 70 1016.1
20260506123003 9 34 11.3 24.1 0.00 0.00 0.00 70 1016.2
20260506122503 9 33 11.3 24.1 0.00 0.00 0.00 70 1016.2
20260506122003 9 34 11.3 24.1 0.00 0.00 0.00 69 1016.0
20260506121503 9 45 9.7 22.5 0.00 0.00 0.00 69 1015.9
20260506121003 9 48 11.3 25.7 0.00 0.00 0.00 69 1016.0
20260506120503 9 46 12.9 25.7 0.00 0.00 0.00 68 1015.9
20260506120024 9 51 12.9 24.1 0.00 0.00 0.00 68 1015.9
20260506115503 9 51 11.3 20.9 0.00 0.00 0.00 67 1015.8
20260506115003 9 51 9.7 20.9 0.00 0.00 0.00 67 1015.8
20260506114503 9 57 11.3 22.5 0.00 0.00 0.00 66 1016.0
20260506114003 9 57 11.3 22.5 0.00 0.00 0.00 66 1016.0
20260506113503 9 56 11.3 24.1 0.00 0.00 0.00 65 1016.1
20260506113003 9 52 11.3 24.1 0.00 0.00 0.00 65 1015.9
20260506112524 9 52 9.7 19.3 0.00 0.00 0.00 64 1015.7
20260506112003 9 55 12.9 27.4 0.00 0.00 0.00 64 1015.5
20260506111503 9 48 14.5 30.6 0.00 0.00 0.00 64 1015.5
20260506111003 9 45 14.5 30.6 0.00 0.00 0.00 64 1015.5
20260506110503 9 50 12.9 24.1 0.00 0.00 0.00 64 1015.6
20260506110003 9 49 12.9 30.6 0.00 0.00 0.00 64 1015.4
20260506105503 9 45 12.9 30.6 0.00 0.00 0.00 64 1015.3
20260506105003 9 49 11.3 22.5 0.00 0.00 0.00 65 1015.2
20260506104503 9 53 9.7 22.5 0.00 0.00 0.00 65 1015.1
20260506104003 9 51 12.9 27.4 0.00 0.00 0.00 66 1015.0
20260506103503 9 53 12.9 27.4 0.00 0.00 0.00 66 1015.0
20260506103003 9 54 12.9 29.0 0.00 0.00 0.00 66 1014.8
20260506102503 9 49 14.5 29.0 0.00 0.00 0.00 66 1014.6
20260506102003 9 48 12.9 25.7 0.00 0.00 0.00 67 1015.5
20260506101503 9 49 11.3 25.7 0.00 0.00 0.00 67 1015.5
20260506101003 9 47 11.3 22.5 0.00 0.00 0.00 67 1015.5
20260506100503 9 44 9.7 20.9 0.00 0.00 0.00 67 1015.4
20260506100003 9 46 9.7 29.0 0.00 0.00 0.00 67 1015.2
20260506095524 9 46 12.9 29.0 0.00 0.00 0.00 67 1015.1
20260506095003 9 42 12.9 24.1 0.00 0.00 0.00 68 1015.6
20260506094524 9 43 12.9 27.4 0.00 0.00 0.00 68 1015.3
20260506094003 9 43 12.9 29.0 0.00 0.00 0.00 69 1015.6
20260506093524 9 38 9.7 29.0 0.00 0.00 0.00 70 1015.3
20260506093024 9 38 11.3 24.1 0.00 0.00 0.00 71 1015.7
20260506092503 8 41 12.9 27.4 0.00 0.00 0.00 72 1015.4
20260506092003 8 41 11.3 27.4 0.00 0.00 0.00 72 1015.0
20260506091524 8 33 9.7 24.1 0.00 0.00 0.00 73 1015.0
20260506091003 8 30 8.0 24.1 0.00 0.00 0.00 74 1015.0
20260506090503 8 34 9.7 22.5 0.00 0.00 0.00 75 1014.8
20260506090003 8 35 11.3 20.9 0.00 0.00 0.00 75 1014.6
20260506085503 8 30 11.3 24.1 0.00 0.00 0.00 76 1014.4
20260506085003 8 23 9.7 24.1 0.00 0.00 0.00 76 1014.6
20260506084503 8 20 9.7 20.9 0.00 0.00 0.00 76 1014.7
20260506084003 8 17 9.7 22.5 0.00 0.00 0.00 77 1014.7
20260506083503 9 28 9.7 22.5 0.00 0.00 0.00 77 1014.6
20260506083024 9 31 9.7 22.5 0.00 0.00 0.00 77 1014.7
20260506082524 9 31 9.7 22.5 0.00 0.00 0.00 77 1014.8
20260506082003 9 40 8.0 20.9 0.00 0.00 0.00 77 1014.8
20260506081524 9 41 8.0 17.7 0.00 0.00 0.00 77 1014.8
20260506081003 9 35 8.0 16.1 0.00 0.00 0.00 77 1014.7
20260506080503 9 45 8.0 20.9 0.00 0.00 0.00 78 1014.9
20260506073503 9 45 8.0 19.3 0.00 0.00 0.00 77 1014.4
20260506073003 9 32 8.0 20.9 0.00 0.00 0.00 77 1014.2
20260506072503 9 21 8.0 20.9 0.00 0.00 0.00 77 1014.0
20260506072003 9 32 6.4 14.5 0.00 0.00 0.00 77 1014.1
20260506071503 9 50 6.4 17.7 0.00 0.00 0.00 77 1014.1
20260506071003 9 53 6.4 17.7 0.00 0.00 0.00 77 1014.1
20260506070503 9 61 8.0 19.3 0.00 0.00 0.00 77 1014.0
20260506062503 9 44 9.7 24.1 0.00 0.00 0.00 76 1013.6
20260506062003 9 46 11.3 24.1 0.00 0.00 0.00 76 1013.7
20260506061503 9 44 11.3 29.0 0.00 0.00 0.00 76 1013.8
20260506061024 9 38 11.3 29.0 0.00 0.00 0.00 76 1013.6
20260506060503 9 46 14.5 29.0 0.00 0.00 0.00 75 1013.4
20260506051003 10 44 12.9 32.2 0.00 0.00 0.00 73 1013.3
20260506050503 10 41 9.7 22.5 0.00 0.00 0.00 73 1013.5
20260506045003 10 33 14.5 30.6 0.00 0.00 0.00 72 1013.6